Location: Newark
(48.9000°N, 0.7000°E)
Time: 20:59:31
(UTC+00:00)

ISS - Pass Details

Date: 01 October 2020
Orbit: 418 x 420 km, 51.6° (Epoch: 20 October)

Event Time Altitude Azimuth Distance (km) Brightness Sun altitude
Rises 19:04:29 0° 290° (WNW) 2,369 1.9 -15.4°
Reaches altitude 10° 19:06:35 10° 289° (WNW) 1,504 0.4 -15.8°
Maximum altitude 19:09:57 80° 203° (SSW) 430 -3.8 -16.3°
Enters shadow 19:10:57 42° 122° (ESE) 607 -3.4 -16.5°
